1536624000.52,50479,18.38,74470.3,0.57,-19.95,-20.59,0,*4A
1536624001.73,50480,18.38,74470.3,0.55,-20.05,-20.59,0,*4D
1536624002.91,50481,18.38,74472.8,0.57,-20.05,-20.59,0,*4E
1536624004.13,50482,18.38,74474.8,0.55,-20.09,-20.89,0,*4E
1536624005.37,50483,18.38,74470.3,0.55,-20.09,-20.83,0,*45
1536624006.58,50484,18.38,74468.8,0.57,-19.81,-20.39,0,*4B
1536624007.76,50485,18.38,74470.0,0.57,-20.05,-20.73,0,*42
1536624008.96,50486,18.38,74472.8,0.57,-19.95,-20.59,0,*4A
1536624010.17,50487,18.38,74474.3,0.55,-20.09,-20.69,0,*45
1536624011.37,50488,18.38,74474.3,0.55,-20.05,-20.69,0,*46
1536624012.57,50489,18.38,74474.5,0.57,-19.95,-20.59,0,*45
1536624013.76,50490,18.38,74478.5,0.57,-20.05,-20.43,0,*45
1536624014.98,50491,18.38,74478.3,0.57,-19.81,-20.35,0,*43
1536624016.19,50492,18.38,74476.8,0.57,-19.81,-20.39,0,*4C
1536624017.43,50493,18.38,74478.5,0.55,-19.75,-20.19,0,*46
1536624018.67,50494,18.38,74474.5,0.57,-19.65,-20.19,0,*42
1536624019.89,50495,18.38,74470.3,0.57,-19.65,-20.25,0,*4C
1536624021.11,50496,18.38,74476.0,0.55,-19.91,-20.69,0,*4E
1536624022.3,50497,18.38,74476.5,0.57,-19.91,-20.43,0,*45
1536624023.54,50498,18.38,74480.5,0.55,-19.81,-20.43,0,*49
1536624024.77,50499,18.38,74476.5,0.57,-19.65,-20.35,0,*41
1536624025.99,50500,18.38,74478.3,0.55,-19.75,-20.39,0,*4F
1536624027.23,50501,18.38,74478.5,0.55,-19.75,-20.35,0,*42
1536624028.42,50502,18.38,74476.3,0.57,-19.75,-20.25,0,*42
1536624029.62,50503,18.38,74478.8,0.57,-19.75,-20.39,0,*4E
1536624030.81,50504,18.38,74476.8,0.57,-19.75,-20.39,0,*49
1536624032.05,50505,18.38,74474.3,0.57,-19.65,-20.19,0,*4B
1536624033.32,50506,18.38,74472.8,0.55,-19.61,-20.19,0,*4E
1536624034.53,50507,18.38,74474.5,0.57,-19.75,-20.35,0,*46
1536624035.78,50508,18.38,74474.8,0.55,-19.65,-20.39,0,*46
1536624037.02,50509,18.38,74474.5,0.57,-19.65,-20.35,0,*49
1536624038.29,50510,18.38,74472.3,0.55,-19.65,-20.35,0,*43
1536624039.5,50511,18.38,74480.3,0.57,-19.75,-20.35,0,*41
1536624040.7,50512,18.38,74476.0,0.57,-19.81,-20.59,0,*43
1536624041.92,50513,18.38,74476.3,0.57,-19.65,-20.25,0,*43
1536624043.14,50514,18.38,74470.0,0.57,-19.65,-20.25,0,*44
1536624044.38,50515,18.38,74480.3,0.57,-19.65,-20.35,0,*44
1536624045.65,50516,18.38,74478.3,0.55,-19.65,-20.35,0,*45
1536624046.89,50517,18.38,74474.5,0.55,-19.65,-20.25,0,*45
1536624048.13,50518,18.38,74474.0,0.55,-19.75,-20.35,0,*4A
1536624049.34,50519,18.38,74474.3,0.57,-19.81,-20.43,0,*43
1536624050.55,50520,18.38,74472.5,0.57,-19.81,-20.43,0,*49
1536624051.79,50521,18.38,74474.8,0.55,-19.65,-20.25,0,*40
1536624053.04,50522,18.38,74478.0,0.57,-19.61,-20.35,0,*44
1536624054.3,50523,18.38,74478.3,0.55,-19.65,-20.19,0,*4D
1536624055.52,50524,18.38,74476.8,0.57,-19.47,-20.19,0,*48
1536624056.74,50525,18.38,74474.5,0.55,-19.75,-20.39,0,*48
1536624058.01,50526,18.38,74474.0,0.55,-19.65,-20.35,0,*46
1536624059.27,50527,18.38,74472.5,0.55,-19.65,-20.35,0,*47
1536624060.49,50528,18.38,74476.3,0.55,-19.51,-20.25,0,*4E
1536624061.73,50529,18.38,74472.8,0.55,-19.41,-20.09,0,*40
1536624062.92,50530,18.38,74474.5,0.57,-19.47,-20.09,0,*4C
1536624064.16,50531,18.38,74472.3,0.55,-19.41,-20.09,0,*49
1536624065.38,50532,18.38,74472.0,0.57,-19.51,-20.19,0,*48
1536624066.63,50533,18.38,74474.3,0.55,-19.61,-20.25,0,*47
1536624067.88,50534,18.38,74476.5,0.55,-19.61,-20.25,0,*40
1536624069.1,50535,18.38,74474.0,0.57,-19.51,-20.19,0,*4F
1536624070.36,50536,18.38,74470.5,0.55,-19.41,-20.19,0,*4F
1536624071.6,50537,18.38,74478.5,0.55,-19.47,-20.19,0,*48
1536624072.83,50538,18.38,74476.5,0.55,-19.51,-20.25,0,*4F
1536624074.02,50539,18.38,74474.3,0.57,-19.47,-20.25,0,*4B
1536624075.26,50540,18.38,74468.0,0.55,-19.31,-20.05,0,*44
1536624076.5,50541,18.38,74470.3,0.55,-19.41,-20.09,0,*4E
1536624077.69,50542,18.38,74474.3,0.57,-19.47,-20.25,0,*47
1536624078.89,50543,18.38,74472.8,0.57,-19.51,-20.25,0,*41
1536624080.13,50544,18.38,74476.0,0.55,-19.51,-20.35,0,*45
1536624081.35,50545,18.38,74476.3,0.57,-19.51,-20.35,0,*46
1536624082.59,50546,18.38,74474.8,0.57,-19.61,-20.35,0,*46
1536624083.81,50547,18.38,74468.3,0.57,-19.61,-20.25,0,*46
1536624085.05,50548,18.38,74472.5,0.55,-19.47,-20.19,0,*40
1536624086.26,50549,18.38,74472.0,0.57,-19.47,-20.35,0,*4D
1536624087.5,50550,18.38,74474.3,0.55,-19.47,-20.35,0,*47
1536624088.75,50551,18.38,74472.8,0.55,-19.51,-20.35,0,*41
1536624089.99,50552,18.38,74470.0,0.55,-19.47,-20.19,0,*4B
1536624091.23,50553,18.38,74472.8,0.55,-19.47,-20.19,0,*4A
1536624092.47,50554,18.38,74470.8,0.55,-19.51,-20.19,0,*4A
1536624093.69,50555,18.38,74470.0,0.57,-19.61,-20.25,0,*45
1536624094.96,50556,18.38,74464.0,0.55,-19.41,-20.19,0,*49
1536624096.18,50557,18.38,74472.3,0.55,-19.47,-20.25,0,*41
1536624097.4,50558,18.38,74470.3,0.55,-19.47,-20.25,0,*4E
1536624098.62,50559,18.38,74468.5,0.55,-19.47,-20.25,0,*4F
1536624099.86,50560,18.38,74470.3,0.55,-19.47,-20.19,0,*4A
1536624101.13,50561,18.38,74470.3,0.55,-19.31,-20.19,0,*4A
1536624102.4,50562,18.38,74466.8,0.55,-19.31,-20.19,0,*49
1536624103.65,50563,18.38,74468.3,0.57,-19.31,-20.19,0,*4A
1536624104.89,50564,18.38,74472.5,0.55,-19.47,-20.35,0,*40
1536624106.11,50565,18.38,74468.5,0.55,-19.51,-20.25,0,*47
1536624107.35,50566,18.38,74474.5,0.55,-19.41,-20.25,0,*45
1536624108.54,50567,18.38,74474.0,0.53,-19.47,-20.25,0,*44
1536624109.82,50568,18.38,74472.8,0.55,-19.27,-20.19,0,*44
1536624111.07,50569,18.38,74470.5,0.55,-19.31,-20.25,0,*4D
1536624112.32,50570,18.38,74474.0,0.55,-19.41,-20.39,0,*4F
1536624113.57,50571,18.38,74472.8,0.55,-19.27,-20.25,0,*43
1536624114.76,50572,18.38,74470.0,0.53,-19.47,-20.29,0,*4C
1536624115.95,50573,18.38,74468.3,0.53,-19.47,-20.29,0,*4D
1536624117.17,50574,18.38,74470.8,0.51,-19.47,-20.39,0,*49
1536624118.4,50575,18.38,74472.8,0.51,-19.47,-20.39,0,*48
1536624119.64,50576,18.38,74472.3,0.53,-19.31,-20.15,0,*46
1536624120.91,50577,18.38,74472.0,0.55,-19.27,-20.19,0,*4A
1536624122.11,50578,18.38,74470.8,0.53,-19.37,-20.29,0,*41
1536624123.39,50579,18.38,74470.8,0.55,-19.27,-20.19,0,*44
1536624124.57,50580,18.38,74470.0,0.53,-19.47,-20.29,0,*41
1536624125.77,50581,18.38,74468.3,0.53,-19.37,-20.29,0,*47
1536624126.99,50582,18.38,74468.8,0.53,-19.31,-20.25,0,*4E
1536624128.2,50583,18.38,74468.0,0.53,-19.17,-20.15,0,*48
1536624129.48,50584,18.38,74470.5,0.55,-19.27,-20.19,0,*46
1536624130.7,50585,18.38,74472.0,0.53,-19.23,-20.25,0,*4A
1536624131.89,50586,18.38,74472.3,0.53,-19.37,-20.29,0,*40
1536624133.08,50587,18.38,74466.8,0.53,-19.07,-20.09,0,*40
1536624134.28,50588,18.38,74464.3,0.53,-19.17,-20.25,0,*40
1536624135.54,50589,18.38,74470.3,0.51,-19.23,-20.39,0,*49
1536624136.78,50590,18.38,74468.5,0.55,-19.17,-20.19,0,*40
1536624137.98,50591,18.38,74468.5,0.53,-19.17,-20.25,0,*48
1536624139.2,50592,18.38,74470.8,0.53,-19.31,-20.29,0,*43
1536624140.44,50593,18.38,74474.3,0.53,-19.31,-20.15,0,*4D
1536624141.63,50594,18.38,74470.8,0.53,-19.37,-20.43,0,*4F
1536624142.83,50595,18.38,74468.5,0.53,-19.17,-20.39,0,*41
1536624144.05,50596,18.38,74468.5,0.53,-19.23,-20.25,0,*48
1536624145.25,50597,18.38,74468.8,0.53,-19.17,-20.29,0,*42
1536624146.5,50598,18.38,74468.8,0.51,-19.23,-20.29,0,*48
1536624147.69,50599,18.38,74468.5,0.53,-19.07,-20.09,0,*4F
1536624148.93,50600,18.38,74472.0,0.51,-19.07,-20.15,0,*43
1536624150.11,50601,18.38,74470.5,0.53,-19.03,-20.09,0,*49
1536624151.36,50602,18.38,74462.8,0.51,-18.93,-20.09,0,*40
1536624152.57,50603,18.38,74460.8,0.53,-19.07,-20.15,0,*42
1536624153.77,50604,18.38,74468.5,0.53,-19.17,-20.25,0,*47
1536624154.96,50605,18.38,74464.3,0.53,-19.07,-20.25,0,*47
1536624156.21,50606,18.38,74468.5,0.51,-19.23,-20.39,0,*4D
1536624157.45,50607,18.38,74468.8,0.51,-19.03,-20.15,0,*40
1536624158.67,50608,18.38,74466.0,0.51,-19.07,-20.29,0,*44
1536624159.86,50609,18.38,74468.8,0.53,-18.99,-20.05,0,*4F
1536624161.08,50610,18.38,74466.8,0.51,-19.07,-20.25,0,*41
1536624162.3,50611,18.38,74468.3,0.51,-19.17,-20.29,0,*4D
1536624163.51,50612,18.38,74468.0,0.53,-18.89,-20.09,0,*48
1536624164.74,50613,18.38,74466.0,0.51,-19.07,-20.39,0,*4F
1536624165.93,50614,18.38,74466.5,0.53,-19.07,-20.29,0,*4B
1536624167.17,50615,18.38,74464.5,0.51,-19.07,-20.15,0,*47
1536624168.36,50616,18.38,74466.3,0.53,-19.03,-20.25,0,*41
1536624169.6,50617,18.38,74466.0,0.51,-18.89,-20.09,0,*4F
1536624170.8,50618,18.38,74466.8,0.53,-19.07,-20.39,0,*46
1536624171.98,50619,18.38,74460.3,0.53,-19.03,-20.29,0,*42
1536624173.21,50620,18.38,74462.8,0.51,-19.17,-20.29,0,*4F
1536624174.44,50621,18.38,74458.5,0.53,-18.89,-20.15,0,*45
1536624175.66,50622,18.38,74460.3,0.51,-18.73,-20.09,0,*4C
1536624176.85,50623,18.38,74470.3,0.53,-18.79,-20.09,0,*45
1536624178.07,50624,18.38,74472.8,0.53,-18.93,-20.25,0,*48
1536624179.26,50625,18.38,74470.8,0.53,-18.73,-20.09,0,*49
1536624180.52,50626,18.38,74474.8,0.51,-18.59,-19.85,0,*4E
1536624181.73,50627,18.38,74472.0,0.53,-18.65,-19.85,0,*42
1536624182.97,50628,18.38,74468.0,0.55,-18.55,-19.91,0,*4D
1536624184.23,50629,18.38,74466.3,0.55,-18.59,-19.81,0,*41
1536624185.42,50630,18.38,74466.5,0.57,-18.83,-20.09,0,*46
1536624186.63,50631,18.38,74464.3,0.55,-18.83,-20.05,0,*49
1536624187.88,50632,18.38,74464.0,0.55,-18.83,-20.19,0,*47
1536624189.09,50633,18.38,74466.8,0.55,-18.73,-20.05,0,*44
1536624190.28,50634,18.38,74468.5,0.57,-18.83,-20.09,0,*42
1536624191.5,50635,18.38,74470.8,0.55,-18.73,-20.09,0,*4E
1536624192.72,50636,18.38,74464.5,0.55,-18.69,-20.05,0,*4A
1536624193.93,50637,18.38,74470.8,0.55,-18.69,-20.05,0,*4B
1536624195.19,50638,18.38,74472.0,0.55,-18.55,-19.81,0,*4D
1536624196.43,50639,18.38,74466.0,0.55,-18.59,-19.95,0,*45
1536624197.65,50640,18.38,74466.8,0.55,-18.73,-20.09,0,*4C
1536624198.87,50641,18.38,74464.8,0.55,-18.73,-20.09,0,*4D
1536624200.08,50642,18.38,74464.3,0.55,-18.69,-20.05,0,*49
1536624201.32,50643,18.38,74460.5,0.55,-18.59,-19.91,0,*4C
1536624202.56,50644,18.38,74462.8,0.55,-18.73,-20.19,0,*49
1536624203.8,50645,18.38,74458.5,0.55,-18.59,-20.05,0,*4D
1536624205.02,50646,18.38,74460.3,0.57,-18.59,-19.95,0,*4F
1536624206.25,50647,18.38,74462.8,0.55,-18.59,-20.05,0,*4F
1536624207.5,50648,18.38,74460.0,0.55,-18.55,-19.95,0,*4F
1536624208.74,50649,18.38,74462.5,0.55,-18.69,-20.19,0,*4F
1536624209.93,50650,18.38,74462.5,0.57,-18.69,-20.05,0,*48
1536624211.12,50651,18.38,74460.5,0.57,-18.69,-20.05,0,*49
1536624212.36,50652,18.38,74460.0,0.55,-18.59,-19.95,0,*48
1536624213.58,50653,18.38,74460.5,0.55,-18.73,-20.25,0,*40
1536624214.77,50654,18.38,74466.3,0.57,-18.69,-20.05,0,*4C
1536624215.98,50655,18.38,74464.5,0.57,-18.55,-20.05,0,*42
1536624217.2,50656,18.38,74466.0,0.55,-18.69,-20.05,0,*4C
1536624218.42,50657,18.38,74464.0,0.55,-18.41,-19.95,0,*44
1536624219.66,50658,18.38,74466.3,0.55,-18.55,-19.95,0,*4E
1536624220.88,50659,18.38,74464.0,0.55,-18.49,-19.95,0,*42
1536624222.1,50660,18.38,74460.8,0.57,-18.55,-19.95,0,*47
1536624223.31,50661,18.38,74458.3,0.57,-18.55,-20.05,0,*45
1536624224.5,50662,18.38,74460.8,0.57,-18.41,-19.91,0,*44
1536624225.71,50663,18.38,74464.3,0.55,-18.49,-19.95,0,*4B
1536624226.95,50664,18.38,74464.8,0.59,-18.17,-19.81,0,*4E
1536624228.13,50665,18.38,74462.3,0.57,-18.11,-19.75,0,*4C
1536624229.34,50666,18.38,74466.0,0.57,-18.11,-19.81,0,*44
1536624230.56,50667,18.38,74466.5,0.59,-18.21,-19.91,0,*49
1536624231.77,50668,18.38,74466.8,0.59,-18.07,-19.75,0,*48
1536624233.01,50669,18.38,74466.5,0.59,-17.87,-19.61,0,*4B
1536624234.27,50670,18.38,74460.0,0.59,-17.63,-19.27,0,*4B
1536624235.51,50671,18.38,74466.5,0.61,-17.25,-18.93,0,*4D
1536624236.72,50672,18.38,74466.3,0.59,-16.97,-18.79,0,*49
1536624237.97,50673,18.38,74464.5,0.59,-16.55,-18.31,0,*4A
1536624239.23,50674,18.38,74468.5,0.59,-16.23,-17.93,0,*4B
1536624240.42,50675,18.38,74464.8,0.61,-16.03,-17.87,0,*46
1536624241.65,50676,18.38,74460.8,0.59,-15.99,-17.93,0,*4B
1536624242.87,50677,18.38,74470.0,0.59,-15.99,-17.93,0,*4A
1536624244.1,50678,18.38,74464.8,0.59,-15.99,-17.93,0,*45
1536624245.29,50679,18.38,74464.3,0.61,-15.95,-18.17,0,*40
1536624246.48,50680,18.38,74466.8,0.61,-16.37,-18.49,0,*46
1536624247.71,50681,18.38,74472.3,0.61,-16.69,-18.59,0,*4D
1536624248.92,50682,18.38,74468.3,0.61,-16.69,-18.49,0,*4F
1536624250.11,50683,18.38,74472.0,0.61,-16.45,-18.49,0,*40
1536624251.33,50684,18.38,74468.3,0.61,-16.23,-18.45,0,*4B
1536624252.58,50685,18.38,74468.3,0.63,-16.17,-18.59,0,*42
1536624253.84,50686,18.38,74468.3,0.63,-16.31,-18.89,0,*48
1536624255.07,50687,18.38,74464.0,0.63,-16.23,-18.79,0,*45
1536624256.25,50688,18.38,74464.5,0.65,-16.45,-18.83,0,*49
1536624257.51,50689,18.38,74466.5,0.63,-16.69,-18.93,0,*41
1536624258.73,50690,18.38,74464.8,0.63,-16.45,-18.49,0,*40
1536624259.97,50691,18.38,74468.8,0.63,-16.45,-18.31,0,*4E
1536624261.19,50692,18.38,74464.5,0.65,-16.13,-18.07,0,*4D
1536624262.41,50693,18.38,74466.8,0.63,-16.03,-18.11,0,*4C
1536624263.62,50694,18.38,74468.3,0.65,-15.95,-18.01,0,*40
1536624264.83,50695,18.38,74470.3,0.63,-16.03,-18.45,0,*4B
1536624266.01,50696,18.38,74468.5,0.65,-16.03,-18.41,0,*4A
1536624267.23,50697,18.38,74470.3,0.65,-15.89,-18.07,0,*48
1536624268.41,50698,18.38,74470.0,0.65,-15.75,-18.25,0,*44
1536624269.62,50699,18.38,74472.5,0.63,-15.75,-18.17,0,*42
1536624270.81,50700,18.38,74474.3,0.65,-15.75,-18.21,0,*40
1536624272.03,50701,18.38,74474.0,0.63,-15.49,-18.11,0,*4B
1536624273.27,50702,18.38,74478.8,0.63,-15.43,-18.11,0,*42
1536624274.45,50703,18.38,74468.3,0.65,-15.53,-18.25,0,*43
1536624275.66,50704,18.38,74464.5,0.65,-15.89,-18.69,0,*4B
1536624276.9,50705,18.38,74466.8,0.65,-16.27,-18.89,0,*43
1536624278.09,50706,18.38,74468.3,0.65,-16.41,-19.13,0,*42
1536624279.3,50707,18.38,74474.0,0.67,-16.45,-19.03,0,*44
1536624280.51,50708,18.38,74474.5,0.67,-16.45,-19.03,0,*4B
1536624281.75,50709,18.38,74472.8,0.67,-16.65,-19.13,0,*49
1536624283.0,50710,18.38,74468.0,0.67,-16.79,-19.27,0,*4B
1536624284.21,50711,18.38,74468.8,0.69,-16.97,-19.41,0,*44
1536624285.45,50712,18.38,74472.5,0.69,-17.25,-19.41,0,*4F
1536624286.67,50713,18.38,74474.0,0.65,-17.07,-19.17,0,*41
1536624287.91,50714,18.38,74468.0,0.67,-17.17,-19.17,0,*45
1536624289.15,50715,18.38,74470.3,0.67,-17.17,-18.99,0,*43
1536624290.39,50716,18.38,74470.0,0.67,-17.21,-18.99,0,*45
1536624291.65,50717,18.38,74472.3,0.67,-17.07,-18.89,0,*41
1536624292.88,50718,18.38,74474.8,0.65,-17.17,-18.59,0,*40
1536624294.09,50719,18.38,74472.3,0.65,-17.03,-18.41,0,*4D
1536624295.28,50720,18.38,74468.8,0.65,-16.79,-18.41,0,*4B
1536624296.46,50721,18.38,74474.0,0.65,-16.75,-18.41,0,*46
1536624297.67,50722,18.38,74474.3,0.65,-16.75,-18.59,0,*4C
1536624298.88,50723,18.38,74472.0,0.65,-16.75,-18.55,0,*41
1536624300.1,50724,18.38,74476.5,0.67,-16.79,-18.45,0,*49
1536624301.34,50725,18.38,74474.0,0.67,-16.51,-18.07,0,*44
1536624302.61,50726,18.38,74470.5,0.67,-16.51,-17.97,0,*41
1536624303.85,50727,18.38,74476.3,0.67,-16.51,-18.21,0,*42
1536624305.09,50728,18.38,74472.5,0.67,-16.65,-18.45,0,*48
1536624306.3,50729,18.38,74472.8,0.67,-16.45,-18.41,0,*4F
1536624307.52,50730,18.38,74474.0,0.67,-16.59,-18.41,0,*4A
1536624308.74,50731,18.38,74476.5,0.67,-16.41,-18.11,0,*47
1536624310.02,50732,18.38,74472.3,0.67,-16.17,-17.97,0,*46
1536624311.25,50733,18.38,74474.5,0.67,-15.99,-17.97,0,*42
1536624312.47,50734,18.38,74472.3,0.69,-15.95,-18.01,0,*47
1536624313.7,50735,18.38,74474.3,0.67,-16.17,-18.25,0,*47
1536624314.95,50736,18.38,74472.3,0.69,-16.09,-18.01,0,*43
1536624316.17,50737,18.38,74466.5,0.67,-16.03,-18.07,0,*40
1536624317.39,50738,18.38,74468.8,0.67,-15.75,-17.83,0,*4E
1536624318.63,50739,18.38,74470.0,0.67,-15.71,-17.93,0,*4A
1536624319.84,50740,18.38,74466.3,0.69,-15.71,-18.01,0,*4E
1536624321.06,50741,18.38,74468.8,0.67,-15.71,-18.11,0,*40
1536624322.28,50742,18.38,74474.8,0.67,-15.75,-18.07,0,*40
1536624323.5,50743,18.38,74468.5,0.67,-15.71,-18.07,0,*45
1536624324.75,50744,18.38,74472.5,0.67,-15.75,-18.35,0,*47
1536624325.96,50745,18.38,74474.0,0.67,-16.03,-18.41,0,*47
1536624327.16,50746,18.38,74476.0,0.67,-15.99,-18.41,0,*44
1536624328.38,50747,18.38,74478.3,0.67,-15.75,-18.25,0,*45
1536624329.62,50748,18.38,74472.5,0.67,-15.85,-18.45,0,*43
1536624330.88,50749,18.38,74474.8,0.67,-15.85,-18.59,0,*4F
1536624332.08,50750,18.38,74474.3,0.65,-15.85,-18.83,0,*42
1536624333.29,50751,18.38,74468.5,0.65,-15.89,-18.99,0,*44
1536624334.47,50752,18.38,74470.8,0.65,-15.99,-19.13,0,*45
1536624335.68,50753,18.31,74470.8,0.65,-16.17,-19.17,0,*45
1536624336.88,50754,18.38,74472.5,0.65,-16.41,-19.37,0,*43
1536624338.06,50755,18.38,74468.3,0.65,-16.59,-19.51,0,*4B
1536624339.28,50756,18.38,74478.0,0.65,-16.65,-19.47,0,*40
1536624340.46,50757,18.38,74470.8,0.65,-16.89,-19.47,0,*43
1536624341.65,50758,18.38,74472.8,0.65,-16.89,-19.51,0,*4B
1536624342.86,50759,18.38,74476.5,0.65,-17.03,-19.51,0,*49
1536624344.1,50760,18.38,74478.0,0.65,-17.07,-19.61,0,*44
1536624345.34,50761,18.38,74470.8,0.65,-17.17,-19.65,0,*40
1536624346.58,50762,18.38,74474.5,0.65,-17.21,-19.61,0,*42
1536624347.8,50763,18.38,74476.3,0.67,-17.49,-19.75,0,*4A
1536624349.04,50764,18.38,74474.5,0.63,-17.45,-19.47,0,*44
1536624350.28,50765,18.38,74468.8,0.65,-17.55,-19.61,0,*46
1536624351.48,50766,18.38,74472.0,0.65,-17.79,-19.75,0,*4E
1536624352.72,50767,18.38,74470.5,0.63,-17.73,-19.65,0,*42
1536624353.93,50768,18.38,74474.5,0.65,-17.93,-19.75,0,*44
1536624355.18,50769,18.38,74468.8,0.63,-17.97,-19.71,0,*43
1536624356.44,50770,18.38,74472.3,0.63,-17.97,-19.65,0,*4E
1536624357.69,50771,18.38,74472.8,0.65,-17.97,-19.65,0,*49
1536624358.87,50772,18.38,74474.5,0.65,-18.07,-19.75,0,*4D
1536624360.09,50773,18.38,74478.8,0.65,-18.11,-19.65,0,*4A
1536624361.27,50774,18.38,74476.3,0.65,-18.07,-19.47,0,*4A
1536624362.49,50775,18.38,74476.3,0.65,-18.21,-19.61,0,*4B
1536624363.67,50776,18.38,74476.3,0.65,-18.11,-19.51,0,*48
1536624364.85,50777,18.38,74474.8,0.65,-18.21,-19.47,0,*4D
1536624366.04,50778,18.38,74478.0,0.65,-18.25,-19.51,0,*41
1536624367.31,50779,18.38,74478.3,0.63,-18.31,-19.65,0,*44
1536624368.49,50780,18.38,74476.3,0.65,-18.21,-19.47,0,*45
1536624369.73,50781,18.38,74474.8,0.65,-18.35,-19.61,0,*45
1536624370.95,50782,18.38,74472.5,0.63,-18.17,-19.37,0,*43
1536624372.13,50783,18.38,74476.8,0.65,-18.17,-19.51,0,*44
1536624373.35,50784,18.38,74478.5,0.65,-18.17,-19.57,0,*45
1536624374.57,50785,18.38,74476.3,0.63,-18.11,-19.37,0,*42
1536624375.78,50786,18.38,74478.0,0.65,-17.83,-19.31,0,*45
1536624376.97,50787,18.38,74476.5,0.65,-17.69,-19.13,0,*40
1536624378.2,50788,18.38,74478.0,0.65,-17.93,-19.27,0,*4D
1536624379.44,50789,18.38,74476.3,0.67,-17.83,-19.27,0,*4F
1536624380.66,50790,18.38,74476.0,0.65,-17.69,-19.27,0,*41
1536624381.87,50791,18.38,74480.0,0.65,-17.93,-19.37,0,*44
1536624383.08,50792,18.38,74476.8,0.65,-17.93,-19.37,0,*47
1536624384.29,50793,18.38,74474.0,0.65,-17.83,-19.27,0,*46
1536624385.47,50794,18.38,74472.8,0.65,-17.69,-18.99,0,*41
1536624386.66,50795,18.38,74476.3,0.65,-17.69,-19.17,0,*47
1536624387.87,50796,18.38,74474.3,0.63,-18.11,-19.51,0,*40
1536624389.05,50797,18.38,74472.8,0.65,-17.83,-18.99,0,*46
1536624390.24,50798,18.38,74472.3,0.65,-18.07,-19.17,0,*4D
1536624391.45,50799,18.38,74474.5,0.65,-18.11,-19.27,0,*48
1536624392.66,50800,18.38,74474.8,0.65,-18.21,-19.27,0,*44
1536624393.85,50801,18.38,74474.3,0.65,-18.25,-19.37,0,*40
1536624395.07,50802,18.38,74476.0,0.63,-18.41,-19.37,0,*47
1536624396.31,50803,18.38,74474.8,0.67,-18.25,-19.31,0,*46
1536624397.49,50804,18.38,74472.8,0.65,-18.11,-19.03,0,*45
1536624398.7,50805,18.38,74472.5,0.65,-18.25,-19.27,0,*45
1536624399.89,50806,18.38,74472.5,0.65,-18.25,-19.17,0,*45
1536624401.07,50807,18.38,74478.5,0.65,-18.21,-18.99,0,*47
1536624402.25,50808,18.38,74474.3,0.65,-18.25,-19.03,0,*4E
1536624403.43,50809,18.38,74474.5,0.65,-18.07,-18.99,0,*4D
1536624404.64,50810,18.38,74476.8,0.63,-18.25,-19.13,0,*40
1536624405.83,50811,18.31,74470.5,0.65,-18.21,-19.13,0,*43
1536624407.01,50812,18.38,74476.5,0.65,-18.11,-19.03,0,*42
1536624408.2,50813,18.38,74476.0,0.65,-17.83,-18.73,0,*41
1536624409.46,50814,18.38,74474.0,0.67,-17.93,-18.89,0,*40
1536624410.64,50815,18.31,74470.5,0.65,-17.69,-18.83,0,*4C
1536624411.87,50816,18.38,74472.5,0.65,-17.63,-18.89,0,*4F
1536624413.07,50817,18.38,74476.3,0.65,-17.55,-18.83,0,*41
1536624414.25,50818,18.38,74476.0,0.65,-17.49,-18.83,0,*43
1536624415.48,50819,18.38,74478.8,0.65,-17.63,-18.89,0,*40
1536624416.69,50820,18.38,74472.8,0.65,-17.55,-18.69,0,*41
1536624417.96,50821,18.38,74476.5,0.63,-17.41,-18.35,0,*4A
1536624419.17,50822,18.38,74478.8,0.65,-17.17,-18.25,0,*4D
1536624420.35,50823,18.38,74476.3,0.65,-16.93,-18.11,0,*46
1536624421.6,50824,18.38,74478.5,0.67,-17.03,-18.21,0,*48
1536624422.82,50825,18.38,74472.8,0.67,-16.79,-18.07,0,*41
1536624424.04,50826,18.38,74472.5,0.67,-16.79,-18.07,0,*42
1536624425.28,50827,18.38,74474.0,0.67,-16.75,-17.97,0,*49
1536624426.5,50828,18.38,74472.3,0.65,-16.75,-17.97,0,*44
1536624427.71,50829,18.38,74480.0,0.65,-16.31,-17.49,0,*46
1536624428.94,50830,18.38,74478.3,0.65,-15.89,-17.21,0,*40
1536624430.15,50831,18.38,74476.3,0.65,-15.57,-16.93,0,*4A
1536624431.36,50832,18.38,74472.8,0.65,-15.11,-16.65,0,*42
1536624432.57,50833,18.38,74476.5,0.65,-14.97,-16.75,0,*4D
1536624433.76,50834,18.38,74476.8,0.65,-15.01,-16.93,0,*4C
1536624434.96,50835,18.31,74478.0,0.65,-15.01,-16.89,0,*46
1536624436.18,50836,18.38,74478.5,0.67,-14.69,-16.59,0,*45
1536624437.42,50837,18.38,74478.3,0.67,-14.29,-16.17,0,*4A
1536624438.67,50838,18.38,74478.0,0.67,-13.73,-15.85,0,*45
1536624439.91,50839,18.38,74470.0,0.67,-13.55,-15.85,0,*40
1536624441.14,50840,18.38,74474.3,0.67,-13.51,-15.53,0,*41
1536624442.33,50841,18.38,74470.5,0.65,-13.43,-15.11,0,*47
1536624443.52,50842,18.31,74462.5,0.65,-13.51,-14.69,0,*49
1536624444.74,50843,18.38,74470.3,0.65,-13.23,-14.55,0,*42
1536624446.0,50844,18.38,74472.8,0.63,-12.79,-14.55,0,*4D
1536624447.22,50845,18.38,74470.5,0.65,-12.11,-14.15,0,*40
1536624448.45,50846,18.38,74470.0,0.67,-11.81,-13.69,0,*47
1536624449.69,50847,18.38,74470.0,0.67,-10.89,-12.53,0,*47
1536624450.93,50848,18.38,74464.5,0.67,-10.71,-12.43,0,*4E
1536624452.17,50849,18.38,74466.3,0.67,-10.49,-12.53,0,*45
1536624453.42,50850,18.31,74470.0,0.67,-10.27,-12.35,0,*45
1536624454.66,50851,18.38,74468.5,0.67,-10.01,-11.89,0,*44
1536624455.89,50852,18.38,74466.8,0.67,-9.93,-11.67,0,*74
1536624457.12,50853,18.38,74464.8,0.67,-9.93,-11.81,0,*7D
1536624458.32,50854,18.38,74466.3,0.69,-9.89,-11.97,0,*78
1536624459.5,50855,18.38,74466.3,0.69,-10.01,-12.25,0,*4B
1536624460.69,50856,18.38,74464.0,0.69,-10.45,-13.11,0,*4E
1536624461.89,50857,18.38,74464.8,0.73,-10.53,-13.61,0,*44
1536624463.1,50858,18.31,74462.3,0.73,-11.19,-14.47,0,*47
1536624464.34,50859,18.38,74468.3,0.73,-11.89,-14.75,0,*4E
1536624465.57,50860,18.38,74470.5,0.77,-11.89,-14.23,0,*43
1536624466.77,50861,18.31,74466.5,0.73,-11.63,-13.47,0,*47
1536624467.96,50862,18.38,74468.5,0.73,-11.45,-13.47,0,*40
1536624469.21,50863,18.38,74472.0,0.77,-11.55,-13.97,0,*49
1536624470.49,50864,18.38,74476.5,0.79,-11.67,-14.47,0,*4B
1536624471.71,50865,18.38,74474.3,0.73,-11.59,-14.65,0,*4D
1536624472.92,50866,18.38,74470.3,0.73,-11.63,-14.65,0,*47
1536624474.18,50867,18.38,74470.3,0.77,-11.55,-14.55,0,*44
1536624475.38,50868,18.38,74468.3,0.77,-11.41,-14.29,0,*45
1536624476.56,50869,18.38,74468.5,0.73,-11.19,-14.33,0,*46
1536624477.81,50870,18.38,74474.0,0.77,-11.07,-14.47,0,*46
1536624479.06,50871,18.38,74474.8,0.77,-11.55,-14.75,0,*41
1536624480.29,50872,18.38,74470.3,0.77,-11.55,-14.37,0,*44
1536624481.51,50873,18.38,74470.0,0.77,-11.19,-13.97,0,*40
1536624482.74,50874,18.38,74470.8,0.77,-11.15,-13.97,0,*4B
1536624483.96,50875,18.38,74468.8,0.77,-11.07,-14.11,0,*40
1536624485.16,50876,18.38,74468.8,0.77,-10.89,-14.15,0,*40
1536624486.39,50877,18.31,74468.5,0.73,-11.07,-14.43,0,*41
1536624487.62,50878,18.38,74470.3,0.77,-11.15,-14.83,0,*45
1536624488.85,50879,18.38,74474.5,0.77,-11.41,-15.57,0,*4D
1536624490.07,50880,18.38,74466.5,0.77,-11.73,-15.75,0,*4A
1536624491.29,50881,18.38,74470.0,0.77,-12.03,-15.57,0,*4F
1536624492.51,50882,18.38,74472.8,0.77,-12.25,-15.25,0,*4D
1536624493.76,50883,18.38,74480.0,0.77,-12.15,-14.97,0,*47
1536624495.01,50884,18.38,74472.0,0.79,-11.85,-14.69,0,*45
1536624496.24,50885,18.38,74472.3,0.77,-12.25,-14.97,0,*42